Lid_Strength_Index
14 14 14 14 14 14 14 15 16 16 17 18 18 19 19 19 19 19 17 16 16 15 14 13 12 11 11 11 10 9 9 8
14 14 14 14 15 14 15 16 17 17 18 19 19 20 20 20 20 19 17 17 16 16 15 14 13 12 11 11 11 10 10 9
15 15 15 15 15 15 15 16 17 17 18 19 20 20 20 20 20 19 18 17 17 16 15 14 13 12 11 12 12 11 11 10
16 16 16 16 16 15 16 17 17 18 19 20 21 21 21 21 21 20 19 18 17 16 15 14 13 12 11 12 12 11 11 11
16 16 16 16 16 16 17 17 18 19 20 21 21 22 22 22 22 21 19 19 19 18 17 15 14 12 11 12 12 12 11 11
16 16 17 17 17 17 17 18 19 20 21 22 22 23 24 24 23 22 20 19 20 19 18 16 14 12 12 12 13 12 12 11
17 17 17 18 17 18 18 19 19 21 22 23 24 25 24 24 23 22 21 20 20 19 18 17 15 12 12 13 13 13 13 12
16 17 17 17 18 19 19 20 21 22 24 24 25 25 25 25 23 22 21 20 20 20 18 17 16 12 12 13 13 13 13 13
15 16 17 17 18 18 20 21 22 24 24 25 25 26 25 25 24 22 20 19 19 19 18 17 16 12 12 14 14 14 14 13
15 16 16 18 18 20 21 22 23 24 25 25 25 26 26 25 23 21 19 19 18 18 19 18 16 13 12 14 14 15 14 13
16 16 17 18 19 21 21 22 23 24 25 25 25 25 25 24 23 21 19 19 18 18 18 19 17 14 13 13 14 15 14 13
17 18 18 19 20 21 21 22 22 24 25 25 24 24 24 24 22 21 20 19 19 18 18 18 17 15 14 13 14 15 14 14
18 18 19 20 20 21 22 21 24 25 25 25 25 24 23 23 22 21 20 20 19 19 18 17 17 15 15 14 14 15 15 15
18 20 21 20 19 20 21 24 25 25 25 25 24 24 23 23 22 21 20 19 19 19 18 18 17 16 15 15 15 15 16 15
20 21 21 20 20 19 23 24 24 25 25 25 24 24 23 22 22 21 20 20 19 19 19 18 17 16 15 15 15 15 16 17
20 21 21 21 20 22 23 24 24 24 25 24 24 24 24 22 22 21 20 19 19 18 18 17 17 16 15 15 16 16 17 18
20 21 21 21 22 23 23 23 24 24 25 24 24 24 23 23 22 19 19 18 18 17 17 17 16 16 15 15 16 17 17 18
21 21 22 21 24 23 23 23 23 23 24 24 24 24 24 22 21 21 19 16 16 16 16 16 16 16 16 17 17 17 18 19
21 21 21 23 23 23 22 22 22 22 23 23 23 23 23 22 21 20 19 19 18 17 17 16 17 17 17 18 18 20 20 21
21 21 21 23 23 23 22 23 22 22 23 22 23 23 23 21 20 19 20 20 21 22 20 22 17 18 19 19 20 20 21 21